sat.trackr.live / text

‹ back to catalog

STARLINK-5659

NORAD 55351 · 2023-013W

PAYLOAD ACTIVE UNKNOWN

§ Identity

Operator
Country
US
Launch date
2023-01-26
Launch site
AFETR
Launch vehicle
Mass (kg)
RCS (m²)

Purposes: comms

External: N2YO · Heavens-Above · Gunter

§ Orbital elements

Epoch: 2026-09-20T09:30:48.819168Z

Period
94.27 min
Inclination
43.0027°
Eccentricity
0.0001385
Mean motion
15.27575365 rev/d
Perigee alt
482.1 km
Apogee alt
484.0 km
Semi-major
6,861.2 km
B*
9.0807e-6
RAAN
283.6019°
Arg perigee
256.8098°
Mean anomaly
103.2599°
Rev number
20,145

§ Raw data

STARLINK-56591 55351U 23013W   26263.39639837 -.00000012  00000+0  90807-5 0  99972 55351  43.0027 283.6019 0001385 256.8098 103.2599 15.27575365201458

JSON: /api/v1/satellites/55351 · /tle

For live sub-satellite position, see the globe view (requires WebGL).

§ Visibility from observer

Set your observer location to see the next 7 days of passes ≥ 10°. The values pass through the URL so the page stays shareable.

No JS? Fill the form by hand. The geolocation button needs JavaScript.